SQ5TM-1 Weather Reports


Display with metric or nautical units.
time (UTC)temp
F
wind
direction
speed
MPH
gust
MPH
rain 1hr
in
rain 24hr
in
rain mn
in
humidity
%
barometer
mb
20260905214131 59 0 0.0 0.0 0.00 0.00 0.00 76 1003.0
20260905212504 59 0 0.0 0.0 0.00 0.00 0.00 75 1003.0
20260905210940 60 0 0.0 0.0 0.00 0.00 0.00 73 1003.0
20260905205415 60 0 0.0 0.0 0.00 0.00 0.00 70 1003.0
20260905203851 61 0 0.0 0.0 0.00 0.00 0.00 69 1002.0
20260905202717 61 0 0.0 0.0 0.00 0.00 0.00 69 1002.0
20260905201153 61 0 0.0 0.0 0.00 0.00 0.00 68 1002.0
20260905195628 61 0 0.0 0.0 0.00 0.00 0.00 67 1002.0
20260905194103 61 0 0.0 0.0 0.00 0.00 0.00 69 1002.0
20260905192539 61 0 0.0 0.0 0.00 0.00 0.00 69 1002.0
20260905191015 61 0 0.0 0.0 0.00 0.00 0.00 68 1002.0
20260905185451 61 0 0.0 0.0 0.00 0.00 0.00 70 1002.0
20260905183926 61 0 0.0 0.0 0.00 0.00 0.00 70 1002.0
20260905182402 62 0 0.0 0.0 0.00 0.00 0.00 67 1002.0
20260905180838 62 0 0.0 0.0 0.00 0.00 0.00 65 1002.0
20260905175313 63 0 0.0 0.0 0.00 0.00 0.00 63 1002.0
20260905173749 63 0 0.0 0.0 0.00 0.00 0.00 64 1002.0
20260905172225 63 0 0.0 0.0 0.00 0.00 0.00 63 1002.0
20260905170700 64 0 0.0 0.0 0.00 0.00 0.00 61 1002.0
20260905165136 64 0 0.0 0.0 0.00 0.00 0.00 59 1002.0
20260905163611 64 0 0.0 0.0 0.00 0.00 0.00 59 1002.0
20260905163506 64 0 0.0 0.0 0.00 0.00 0.00 59 1002.0
20260905161941 64 0 0.0 0.0 0.00 0.00 0.00 58 1002.0
20260905160417 64 0 0.0 0.0 0.00 0.00 0.00 56 1001.0
20260905154853 65 0 0.0 0.0 0.00 0.00 0.00 54 1001.0
20260905153329 65 0 0.0 0.0 0.00 0.00 0.00 54 1002.0
20260905151805 66 0 0.0 0.0 0.00 0.00 0.00 53 1002.0
20260905150240 67 0 0.0 0.0 0.00 0.00 0.00 52 1001.0
20260905144716 68 0 0.0 0.0 0.00 0.00 0.00 49 1001.0
20260905143152 69 0 0.0 0.0 0.00 0.00 0.00 48 1001.0
20260905141626 72 0 0.0 0.0 0.00 0.00 0.00 45 1001.0
20260905134538 77 0 0.0 0.0 0.00 0.00 0.00 41 1001.0
20260905133014 70 0 0.0 0.0 0.00 0.00 0.00 47 1001.0
20260905131449 73 0 0.0 0.0 0.00 0.00 0.00 45 1001.0
20260905125925 74 0 0.0 0.0 0.00 0.00 0.00 44 1001.0
20260905124401 79 0 0.0 0.0 0.00 0.00 0.00 38 1001.0
20260905122836 75 0 0.0 0.0 0.00 0.00 0.00 40 1001.0
20260905121312 76 0 0.0 0.0 0.00 0.00 0.00 40 1001.0
20260905115747 73 0 0.0 0.0 0.00 0.00 0.00 43 1001.0
20260905114223 73 0 0.0 0.0 0.00 0.00 0.00 43 1001.0
20260905112658 74 0 0.0 0.0 0.00 0.00 0.00 42 1001.0
20260905111134 72 0 0.0 0.0 0.00 0.00 0.00 44 1000.0
20260905105610 70 0 0.0 0.0 0.00 0.00 0.00 49 1001.0
20260905104046 70 0 0.0 0.0 0.00 0.00 0.00 50 1000.0
20260905102521 69 0 0.0 0.0 0.00 0.00 0.00 53 1000.0
20260905100957 66 0 0.0 0.0 0.00 0.00 0.00 58 1000.0
20260905095433 68 0 0.0 0.0 0.00 0.00 0.00 52 1000.0
20260905093908 68 0 0.0 0.0 0.00 0.00 0.00 53 1000.0
20260905092344 67 0 0.0 0.0 0.00 0.00 0.00 53 1000.0
20260905090820 66 0 0.0 0.0 0.00 0.00 0.00 59 1000.0
20260905085255 67 0 0.0 0.0 0.00 0.00 0.00 57 1000.0
20260905083731 66 0 0.0 0.0 0.00 0.00 0.00 59 1000.0
20260905082207 66 0 0.0 0.0 0.00 0.00 0.00 63 999.0
20260905080642 66 0 0.0 0.0 0.00 0.00 0.00 64 999.0
20260905075118 64 0 0.0 0.0 0.00 0.00 0.00 66 999.0
20260905073554 64 0 0.0 0.0 0.00 0.00 0.00 66 999.0
20260905072029 64 0 0.0 0.0 0.00 0.00 0.00 67 999.0
20260905070505 63 0 0.0 0.0 0.00 0.00 0.00 68 999.0
20260905064941 64 0 0.0 0.0 0.00 0.00 0.00 67 999.0
20260905063417 63 0 0.0 0.0 0.00 0.00 0.00 68 999.0
20260905061853 63 0 0.0 0.0 0.00 0.00 0.00 68 998.0
20260905060328 62 0 0.0 0.0 0.00 0.00 0.00 71 998.0
20260905054804 61 0 0.0 0.0 0.00 0.00 0.00 70 998.0
20260905053239 61 0 0.0 0.0 0.00 0.00 0.00 70 998.0
20260905051715 61 0 0.0 0.0 0.00 0.00 0.00 70 998.0
20260905050151 61 0 0.0 0.0 0.00 0.00 0.00 70 998.0
20260905044627 62 0 0.0 0.0 0.00 0.00 0.00 71 997.0
20260905043102 62 0 0.0 0.0 0.00 0.00 0.00 70 997.0
20260905041538 63 0 0.0 0.0 0.00 0.00 0.00 71 997.0
20260905040013 63 0 0.0 0.0 0.00 0.00 0.00 71 997.0
20260905034448 63 0 0.0 0.0 0.00 0.00 0.00 73 996.0
20260905032924 64 0 0.0 0.0 0.00 0.00 0.00 77 996.0
20260905031359 63 0 0.0 0.0 0.00 0.00 0.00 79 995.0
20260905025835 64 0 0.0 0.0 0.00 0.00 0.00 78 995.0
20260905024310 64 0 0.0 0.0 0.00 0.00 0.00 79 995.0
20260905022746 64 0 0.0 0.0 0.00 0.00 0.00 79 995.0
20260905021222 64 0 0.0 0.0 0.00 0.00 0.00 80 995.0
20260905015658 64 0 0.0 0.0 0.00 0.00 0.00 79 995.0
20260905014133 65 0 0.0 0.0 0.00 0.00 0.00 77 995.0
20260905012609 65 0 0.0 0.0 0.00 0.00 0.00 78 995.0
20260905011045 65 0 0.0 0.0 0.00 0.00 0.00 79 995.0
20260905005521 66 0 0.0 0.0 0.00 0.00 0.00 79 994.0
20260905003956 66 0 0.0 0.0 0.00 0.00 0.00 82 994.0
20260905002432 66 0 0.0 0.0 0.00 0.00 0.00 84 994.0
20260905000908 66 0 0.0 0.0 0.00 0.00 0.00 85 994.0
20260904235344 66 0 0.0 0.0 0.00 0.00 0.00 86 994.0
20260904233819 66 0 0.0 0.0 0.00 0.00 0.00 87 994.0
20260904232254 66 0 0.0 0.0 0.00 0.00 0.00 89 994.0
20260904230731 66 0 0.0 0.0 0.00 0.00 0.00 89 994.0
20260904225206 66 0 0.0 0.0 0.00 0.00 0.00 90 994.0
20260904223641 66 0 0.0 0.0 0.00 0.00 0.00 88 993.0
20260904222117 65 0 0.0 0.0 0.00 0.00 0.00 87 993.0
20260904220553 65 0 0.0 0.0 0.00 0.00 0.00 86 993.0